This demonstration page uses our WeatherBlox Daily Observations layout. Learn more.

Left ArrowRight Arrow

34.74481, -87.66753

Hourly Observations for April 3, 2017

Temp ( °F °C ) Dew Point ( °F °C ) Humidity (%) Winds ( mph kmh ) Pressure ( in mb ) Visibility ( mi km ) Precip ( " mm )
12:53 am 00:53 Cloudy with Rain 62 16.7 59 15 90 90 W 12 19 29.89 1012 10 16 0.01 0.25
1:53 am 01:53 Cloudy with Heavy Rain 62 16.7 59 15 90 90 WSW 6 9 29.88 1012 5 8 0.00 0.00
2:53 am 02:53 Cloudy with Heavy Rain 66 18.9 57 13.9 73 73 SSW 16 26 29.86 1011 4 6 0.12 3.05
3:53 am 03:53 Cloudy with Rain 62 16.7 59 15 90 90 Calm 29.84 1011 6 10 0.12 3.05
4:53 am 04:53 Cloudy with Rain 61 16.1 59 15 93 93 NNW 3 6 29.84 1011 5 8 0.15 3.81
5:48 am 05:48 Cloudy with Nearby Thunderstorms 61 16 59 15 94 94 Calm 29.83 1010 6 10 0.13 3.30
5:53 am 05:53 Cloudy with Nearby Thunderstorms 61 16.1 59 15 93 93 Calm 29.84 1011 6 10 0.14 3.56
6:03 am 06:03 Cloudy with Rain 62 16.7 59 15 90 90 Calm 29.83 1010 5 8 0.03 0.76
6:20 am 06:20 Cloudy with Nearby Thunderstorms 61 16.1 59 15 93 93 SSE 5 7 29.85 1011 6 10 0.07 1.78
6:43 am 06:43 Cloudy with Rain 61 16.1 59 15 93 93 SSW 8 13 29.85 1011 5 8 0.12 3.05
6:53 am 06:53 Cloudy with Rain 61 16.1 59 15 93 93 S 7 11 29.88 1012 5 8 0.15 3.81
7:11 am 07:11 Cloudy with Nearby Thunderstorms 61 16.1 59 15 93 93 SSE 9 15 29.85 1011 5 8 0.04 1.02
7:26 am 07:26 Cloudy with Rain 61 16.1 58 14.4 90 90 SE 12 19 29.85 1011 7 11 0.08 2.03
7:53 am 07:53 Cloudy with Rain 61 16.1 57 13.9 87 87 SE 12 19 29.81 1010 7 11 0.16 4.06
8:30 am 08:30 Cloudy with Nearby Thunderstorms 61 16.1 57 13.9 87 87 ESE 16 26 29.77 1008 8 13 0.12 3.05
8:45 am 08:45 Cloudy with Light Rain 60 15.6 57 13.9 90 90 ESE 18 30 29.74 1007 10 16 0.17 4.32
8:53 am 08:53 Cloudy with Light Rain 60 15.6 57 13.9 90 90 ESE 18 30 29.70 1006 10 16 0.20 5.08
9:53 am 09:53 Mostly Sunny 62 16.7 55 12.8 78 78 SE 22 35 29.60 1002 10 16 0.19 4.83
10:53 am 10:53 Sunny 63 17.2 54 12.2 73 73 VRB 7 11 29.66 1004 10 16 0.02 0.51
11:53 am 11:53 Sunny 66 18.9 56 13.3 70 70 SW 9 15 29.65 1004 10 16 0.00 0.00
12:53 pm 12:53 Mostly Sunny 69 20.6 56 13.3 63 63 S 13 20 29.64 1004 10 16 0.00 0.00
1:53 pm 13:53 Mostly Cloudy 72 22.2 57 13.9 59 59 SSW 18 30 29.62 1003 10 16 0.00 0.00
2:53 pm 14:53 Cloudy 71 21.7 57 13.9 61 61 SW 14 22 29.61 1003 10 16 0.00 0.00
3:53 pm 15:53 Mostly Cloudy 73 22.8 57 13.9 57 57 SW 14 22 29.58 1002 10 16 0.00 0.00
4:53 pm 16:53 Mostly Cloudy 72 22.2 56 13.3 57 57 SW 14 22 29.57 1002 10 16 0.00 0.00
5:44 pm 17:44 Mostly Cloudy 70 21.1 59 15 68 68 WNW 12 19 29.62 1003 10 16 0.00 0.00
5:53 pm 17:53 Mostly Cloudy 69 20.6 59 15 70 70 WNW 9 15 29.59 1002 10 16 0.00 0.00
6:53 pm 18:53 Sunny 69 20.6 59 15 70 70 WSW 8 13 29.59 1002 10 16 0.00 0.00
7:53 pm 19:53 Mostly Clear 68 20 57 13.9 68 68 WSW 10 17 29.62 1003 10 16 0.00 0.00
8:53 pm 20:53 Mostly Clear 68 20 54 12.2 61 61 WSW 13 20 29.66 1004 10 16 0.00 0.00
9:53 pm 21:53 Partly Cloudy 66 18.9 54 12.2 65 65 WSW 12 19 29.69 1006 10 16 0.00 0.00
10:53 pm 22:53 Mostly Cloudy 66 18.9 54 12.2 65 65 WSW 13 20 29.72 1006 10 16 0.00 0.00
11:53 pm 23:53 Clear 65 18.3 54 12.2 68 68 WSW 14 22 29.72 1007 10 16 0.00 0.00

Powered by AerisWeather